This is the latest recevied weather packets stored in our database for station/object EA2ESA-13. If no packets are shown the sender has not sent any weather packets the latest 10 day(s).
| Time | Temp. | Humidity | Pressure | Rain* | Wind** | Luminosity | Snow |
|---|---|---|---|---|---|---|---|
| 1777491535 | 18.89° C | 77% | 1014.1 hPa | 0 mm | 0 m/s | - | - |
| 1777490934 | 18.89° C | 76% | 1014.3 hPa | 0 mm | 0 m/s | - | - |
| 1777490333 | 18.89° C | 74% | 1014.2 hPa | 0 mm | 0 m/s | - | - |
| 1777489732 | 19.44° C | 73% | 1014.3 hPa | 0 mm | 0 m/s | - | - |
| 1777489131 | 19.44° C | 72% | 1014.3 hPa | 0 mm | 0 m/s | - | - |
| 1777488530 | 20° C | 71% | 1014.1 hPa | 0 mm | 0 m/s | - | - |
| 1777487930 | 20° C | 69% | 1014.1 hPa | 0 mm | 0 m/s | - | - |
| 1777487329 | 20.56° C | 66% | 1014.5 hPa | 0 mm | 0 m/s | - | - |
| 1777486728 | 20.56° C | 66% | 1014.5 hPa | 0 mm | 0 m/s | - | - |
| 1777486127 | 21.11° C | 69% | 1014.6 hPa | 0 mm | 0 m/s | - | - |
| 1777485526 | 21.11° C | 71% | 1014 hPa | 0 mm | 0 m/s | - | - |
| 1777484925 | 21.11° C | 71% | 1013.5 hPa | 0 mm | 0 m/s | - | - |
| 1777484325 | 21.11° C | 70% | 1013.5 hPa | 0 mm | 0 m/s | - | - |
| 1777483724 | 21.11° C | 70% | 1013.5 hPa | 0 mm | 0 m/s | - | - |
| 1777483123 | 21.11° C | 72% | 1013 hPa | 0 mm | 0 m/s | - | - |
| 1777482522 | 21.11° C | 71% | 1012.3 hPa | 0 mm | 0 m/s | - | - |
| 1777481922 | 21.67° C | 71% | 1012.2 hPa | 0 mm | 0 m/s | - | - |
| 1777481321 | 21.67° C | 70% | 1012 hPa | 0 mm | 0 m/s | - | - |
| 1777480720 | 21.67° C | 70% | 1012.1 hPa | 0 mm | 0 m/s | - | - |
| 1777480119 | 21.67° C | 70% | 1012.2 hPa | 0 mm | 0 m/s | - | - |
| 1777479518 | 21.67° C | 69% | 1012 hPa | 0 mm | 0 m/s | - | - |
| 1777478918 | 22.22° C | 69% | 1011.8 hPa | 0 mm | 0 m/s | - | - |
| 1777478317 | 21.67° C | 69% | 1012 hPa | 0 mm | 0 m/s | - | - |
| 1777477716 | 21.67° C | 71% | 1012.1 hPa | 0 mm | 0 m/s | - | - |
| 1777477115 | 21.11° C | 71% | 1012.1 hPa | 0 mm | 0 m/s | - | - |
* Rain latest hour (hover to see other rain measurements)
** Current wind speed in m/s (hover to see current wind gust speed)